Theta_e
308 307 308 308 308 310 311 311 310 311 311 310 310 311 311 311 311 310 311 313 314 316 318 321 324 325 326 327 334 335 336 337 339 342 347 349 349 346 342 347 350 349 346 346
306 307 309 309 309 309 308 308 308 309 311 311 310 310 310 310 310 310 310 311 312 314 316 318 320 322 324 326 329 334 336 340 341 342 346 347 346 346 342 341 341 344 345 339
307 308 309 309 308 309 310 311 313 313 312 311 310 311 310 310 310 310 310 310 311 313 315 316 318 321 324 324 327 332 335 338 342 345 348 348 346 343 343 345 344 339 337 337
307 308 309 309 311 313 313 313 314 314 312 311 311 312 311 311 310 310 309 308 308 310 312 313 315 317 319 322 325 329 333 336 340 343 342 343 337 337 334 334 335 335 337 338
307 308 308 309 314 313 313 313 313 313 312 310 311 309 310 310 311 311 310 310 310 309 309 311 313 315 318 321 324 327 333 336 337 338 337 335 334 332 328 329 333 333 332 336
306 307 311 312 312 312 313 312 309 310 310 312 311 310 311 309 309 311 312 314 314 313 312 312 311 314 316 319 325 332 335 336 333 333 334 333 332 331 333 334 338 339 341 347
308 307 312 313 312 311 311 309 310 311 310 313 311 312 311 310 311 315 316 315 314 313 314 314 315 313 313 316 321 331 333 334 332 332 331 331 331 330 332 334 340 344 349 349
307 307 309 314 312 310 309 310 310 315 314 313 312 316 313 315 315 315 314 313 313 313 313 316 316 317 316 315 317 326 331 332 331 331 331 331 332 333 334 335 340 345 348 348
310 311 311 311 310 309 309 311 308 312 311 315 314 315 311 315 315 314 313 313 313 312 312 314 315 316 316 316 317 318 324 328 330 331 332 333 334 337 338 338 342 348 348 347
311 312 311 311 310 309 309 308 310 309 315 317 314 314 313 317 315 314 312 312 312 312 312 314 314 316 315 319 323 319 320 321 325 327 330 334 336 337 338 340 344 347 347 346
312 311 312 311 310 309 309 312 314 314 317 318 320 316 315 317 313 313 312 311 311 311 312 313 314 316 314 325 335 328 327 323 326 330 332 336 340 341 341 343 346 346 346 345
314 312 314 312 310 310 312 313 312 308 310 318 317 314 312 312 312 311 312 312 312 312 313 314 315 312 315 322 328 335 331 329 329 333 340 341 344 344 343 343 345 347 344 342
313 310 314 310 309 309 312 314 312 313 312 314 316 314 310 315 314 313 311 312 313 314 314 316 313 312 315 318 324 338 336 334 336 338 338 340 344 347 346 346 346 344 343 344
314 312 312 314 311 309 313 314 313 312 315 313 313 312 311 311 316 313 312 314 314 314 314 316 316 314 314 315 320 336 345 342 340 343 346 348 349 350 348 346 344 344 345 345
311 311 313 313 314 315 316 316 315 314 313 313 311 315 314 312 313 313 312 313 314 314 314 315 314 315 315 316 322 337 346 347 348 347 346 345 345 346 346 346 345 344 344 342
310 312 315 314 314 314 313 313 314 314 313 313 316 316 314 312 311 312 312 313 314 314 314 315 322 325 325 322 323 337 343 345 346 343 342 341 341 341 340 340 341 339 336 334
309 311 314 315 313 313 315 317 316 314 314 314 315 315 314 314 314 314 314 316 317 318 318 321 325 325 321 322 323 324 342 343 343 342 340 340 339 338 337 336 334 333 333 333
311 312 315 316 312 317 314 315 313 313 312 313 313 314 312 311 311 311 311 314 314 313 315 317 320 325 323 323 323 326 338 342 342 340 339 338 337 335 335 335 334 333 333 333
311 312 316 316 307 312 314 316 315 314 314 314 314 312 311 311 310 311 312 311 310 311 313 315 318 327 326 325 326 327 326 340 340 338 337 336 335 334 334 333 333 333 333 332
312 310 310 315 317 315 312 315 313 313 313 314 311 311 311 311 313 311 309 309 309 310 311 313 315 324 326 325 325 327 329 338 337 336 335 334 335 334 334 333 332 332 332 332
313 316 316 315 316 315 314 313 312 313 313 311 311 311 313 313 311 311 310 310 310 310 311 313 314 325 326 324 324 325 330 335 335 334 333 333 334 333 333 332 332 332 331 330
312 314 316 316 316 314 313 313 316 312 312 312 311 310 310 310 311 310 309 310 310 310 312 314 315 326 328 323 325 324 331 332 333 333 333 332 332 332 332 332 331 332 331 328
307 313 314 312 312 311 313 314 310 312 311 309 308 308 308 310 309 309 310 311 311 312 314 315 320 327 330 328 332 332 331 333 333 332 332 332 332 332 331 331 331 330 329 327
308 308 311 314 312 314 313 310 308 307 307 308 308 308 308 308 309 310 311 313 315 318 318 317 321 329 330 332 334 331 332 332 331 331 332 332 332 331 331 331 331 330 328 327
308 309 313 315 313 313 311 309 307 306 306 307 307 308 308 309 310 311 313 314 316 319 321 319 325 331 328 330 332 332 332 331 331 331 331 331 331 331 330 330 330 331 329 329
310 315 315 314 313 312 310 306 306 307 307 308 307 308 309 310 312 312 313 314 317 320 326 328 330 328 330 329 332 332 331 331 331 330 330 331 328 328 327 326 325 330 331 330
Wind_Speed
4 4 5 12 8 9 7 5 4 4 6 5 10 17 12 7 7 8 9 12 12 15 18 23 24 28 32 18 30 39 45 46 43 38 34 31 37 44 42 44 39 35 33 33
6 2 3 4 4 4 4 3 5 4 7 9 12 24 17 7 8 8 9 12 10 12 15 19 25 24 32 32 25 37 43 48 47 44 40 33 37 42 39 36 32 32 35 33
3 7 6 5 5 6 4 4 6 6 8 3 7 17 15 13 6 7 7 8 9 10 13 16 15 14 22 31 31 33 45 50 49 46 38 29 24 19 21 29 31 32 31 33
5 4 3 7 1 3 2 6 8 12 8 4 1 13 15 11 12 7 10 8 10 11 12 10 14 15 21 27 31 29 37 48 50 53 40 38 30 21 29 30 28 24 24 22
7 5 5 5 2 2 5 4 6 7 9 3 3 5 17 13 19 16 14 13 13 10 11 13 13 17 30 30 31 35 35 43 46 48 44 41 32 33 31 31 26 24 27 26
10 2 2 3 2 2 1 2 5 3 0 4 3 7 24 7 13 14 10 12 13 14 15 17 19 23 25 32 24 32 36 40 41 40 40 36 34 33 31 26 20 22 23 25
3 5 2 2 1 3 4 5 4 4 2 5 4 7 16 14 13 2 6 10 12 9 10 14 16 18 20 21 30 31 34 37 39 38 38 41 41 39 36 30 25 22 25 26
3 6 4 0 2 4 3 6 4 5 5 12 13 8 6 4 2 5 5 7 9 10 8 12 16 17 22 26 26 33 33 34 41 43 44 45 43 39 36 31 26 25 31 31
3 3 6 6 3 3 3 4 8 4 5 4 6 7 8 6 5 9 7 8 12 15 12 11 17 15 23 28 28 33 36 39 41 44 43 39 42 33 33 30 28 30 33 29
4 5 6 1 4 5 5 4 2 2 4 5 5 7 6 8 11 9 11 12 15 16 15 12 13 15 28 28 25 30 34 36 41 39 38 39 38 32 31 30 29 31 29 26
1 3 4 4 3 5 5 1 3 2 4 3 5 5 6 10 12 8 9 11 13 18 15 10 13 15 24 25 27 18 19 26 27 28 29 27 26 27 29 28 27 28 26 25
1 1 4 7 15 11 5 5 3 4 5 4 4 11 14 17 8 8 11 12 16 15 11 9 12 8 17 19 26 24 19 21 27 29 28 25 23 25 28 26 26 28 26 25
3 1 4 6 5 5 2 4 6 4 3 8 5 9 7 5 9 14 11 11 14 14 12 8 6 9 13 18 24 21 17 23 27 29 26 24 26 27 27 26 29 28 29 26
8 4 7 8 9 6 14 17 16 10 7 10 13 20 20 14 11 11 9 13 10 13 13 5 11 16 16 20 19 17 7 24 30 29 28 26 25 27 28 31 31 32 30 28
5 5 6 11 16 18 21 22 20 17 15 12 16 10 13 8 10 15 12 12 10 14 16 17 17 18 19 14 21 19 18 22 26 25 25 26 29 29 30 33 32 30 31 32
3 5 3 17 16 17 17 15 18 17 16 8 7 11 3 10 9 6 11 12 17 15 15 18 19 13 11 13 27 25 21 21 24 23 22 29 31 33 32 32 34 30 31 28
5 4 3 10 6 13 7 3 4 5 5 4 6 5 10 14 15 14 15 16 13 14 14 15 16 1 6 7 17 24 25 26 27 27 27 29 31 30 32 30 31 30 29 27
6 5 3 6 4 3 3 4 1 6 12 9 10 6 9 13 16 18 13 5 14 17 17 16 16 5 7 7 13 15 1 27 29 28 28 30 29 28 33 32 30 30 30 31
14 5 3 3 3 7 7 3 1 2 12 2 4 11 15 16 17 12 9 15 17 18 16 14 19 8 12 14 14 8 23 14 28 28 29 29 30 31 32 30 31 30 31 28
5 4 4 3 4 4 3 3 1 4 7 3 6 9 12 16 13 13 16 20 22 18 17 17 29 20 9 15 14 15 27 22 28 30 30 30 33 33 31 30 30 29 30 27
2 2 6 7 4 6 3 3 1 0 6 8 13 13 13 11 13 21 19 22 18 21 20 26 26 17 7 16 18 15 23 23 30 32 31 32 33 32 31 30 32 31 29 27
3 3 3 2 4 6 4 1 4 4 9 11 12 12 14 17 16 20 20 19 20 21 19 24 17 16 9 11 17 25 17 28 32 33 31 30 28 29 31 33 29 30 31 29
3 3 3 5 5 4 5 10 8 5 6 12 12 11 16 16 18 18 19 18 17 17 14 21 17 19 17 18 22 11 21 31 30 28 26 25 28 30 32 32 29 25 29 25
5 6 4 6 3 6 7 5 5 4 11 13 17 16 14 18 17 19 17 16 14 13 11 17 16 14 3 13 11 24 27 31 29 26 26 25 28 26 30 31 31 27 23 20
8 5 5 5 12 12 6 7 13 15 15 16 14 15 15 15 17 18 14 15 13 14 14 14 9 8 10 15 16 27 27 31 26 25 23 23 28 29 25 24 22 26 28 30
3 3 2 4 11 5 12 8 17 18 17 12 13 15 15 15 14 15 14 13 11 14 15 9 7 1 4 9 15 27 28 31 28 22 21 22 24 26 25 23 16 20 23 23
Wind_Direction
297 91 195 235 212 235 260 264 266 276 290 327 287 292 292 291 300 313 306 304 305 294 279 267 241 245 261 244 222 223 207 213 211 207 210 217 222 228 235 235 235 241 243 244
7 279 271 274 321 317 324 323 313 266 342 337 305 287 285 270 271 259 268 281 282 295 300 289 268 238 240 247 225 220 212 212 208 205 208 208 215 223 227 231 231 235 240 245
185 255 291 316 308 12 6 53 334 311 333 282 341 296 306 307 266 293 288 274 284 281 291 297 283 270 247 243 238 222 216 212 210 210 209 205 212 207 215 229 232 236 246 247
260 263 319 319 29 91 347 352 330 320 339 280 42 288 287 287 293 281 292 294 279 286 287 282 284 287 268 255 254 240 229 211 207 210 204 202 206 201 223 234 236 239 249 256
253 251 301 307 209 112 228 330 298 300 286 275 251 276 276 312 291 292 292 283 279 264 277 278 281 282 283 269 252 246 231 216 206 201 205 210 213 223 234 244 249 247 253 254
237 201 150 178 227 179 254 329 319 321 33 269 191 209 280 271 273 275 318 347 342 339 333 320 301 285 283 280 255 239 216 212 208 211 214 220 226 228 229 236 236 236 238 220
333 256 157 161 180 345 82 52 332 337 347 239 346 310 262 284 280 87 297 310 314 306 318 315 312 312 295 281 260 230 211 207 210 216 222 227 229 231 228 224 220 212 200 191
137 335 39 202 250 247 223 162 163 262 277 288 302 258 248 109 121 230 245 277 298 301 308 309 309 302 287 279 249 228 211 211 212 216 222 228 231 228 226 219 215 207 197 193
341 267 330 331 54 97 257 176 210 229 276 249 238 287 291 323 329 325 305 311 313 310 307 311 311 305 305 281 252 216 212 216 220 221 223 225 229 217 216 214 210 200 201 195
330 297 225 287 337 274 182 245 293 358 303 262 259 255 250 307 299 286 313 323 310 302 300 304 305 302 316 313 271 243 225 213 217 221 222 223 225 224 219 206 199 200 199 193
16 166 275 358 238 267 331 355 90 104 190 258 295 263 222 251 256 285 299 293 288 291 291 302 299 289 308 320 294 243 234 229 224 219 217 212 211 204 200 195 194 197 192 189
241 220 277 247 271 268 181 182 148 135 257 226 270 264 256 254 267 270 265 277 285 284 280 286 272 287 320 321 316 282 214 204 212 204 191 190 186 191 193 191 193 189 182 183
187 296 320 326 5 1 168 204 199 209 204 232 250 275 267 263 255 251 265 286 280 287 276 255 261 314 328 321 313 309 222 186 183 174 175 179 185 186 190 189 185 177 174 173
153 205 191 250 256 249 278 273 267 245 241 265 252 281 293 287 255 259 274 270 269 297 289 347 338 323 315 304 306 289 192 163 168 170 170 170 176 181 182 180 173 173 174 167
157 219 218 247 263 270 273 277 274 273 259 250 273 250 283 284 285 259 245 281 311 304 313 354 322 314 303 318 311 259 190 162 160 155 153 151 160 167 168 166 168 167 157 158
180 252 285 288 270 271 287 293 274 261 276 262 295 273 332 302 291 286 267 304 307 314 348 313 308 332 23 354 332 254 203 159 160 140 137 136 131 132 138 146 145 153 155 151
207 206 251 271 326 311 283 253 33 344 302 216 265 271 330 325 325 318 325 329 359 343 337 324 336 355 335 336 307 315 187 161 141 136 136 132 133 136 142 146 145 146 146 148
199 158 187 281 345 253 213 170 46 302 286 268 277 294 307 303 304 307 295 0 332 335 330 323 325 253 268 260 295 315 276 155 138 137 139 137 139 139 150 153 151 147 150 151
206 145 233 256 212 288 279 165 161 7 297 260 301 328 320 311 318 311 350 332 321 317 313 312 325 278 319 345 329 291 337 178 133 140 136 140 143 148 151 150 152 152 150 149
81 133 168 211 251 248 242 170 203 283 271 181 334 318 309 318 309 303 326 315 313 313 310 318 318 310 24 321 331 338 314 151 144 139 140 147 150 151 154 154 154 150 150 144
239 223 240 257 265 272 200 154 184 231 301 319 315 314 308 298 289 298 307 304 303 301 310 312 307 310 29 351 340 307 269 154 142 144 147 153 159 160 160 152 152 150 144 142
273 197 239 248 238 268 151 190 225 233 302 302 299 301 301 294 291 292 299 297 299 301 309 307 299 311 341 323 276 264 211 141 145 149 151 154 155 154 157 150 152 152 147 139
317 184 252 205 240 217 214 260 266 300 272 284 284 289 293 284 288 293 294 295 290 291 292 287 295 317 291 219 234 237 146 142 140 145 147 150 149 153 155 148 146 140 145 143
316 306 257 329 272 282 285 276 232 255 293 296 290 295 288 284 287 287 291 291 293 299 288 285 295 284 294 285 236 152 141 137 137 136 135 137 140 145 152 154 156 150 151 148
268 292 281 256 288 286 277 303 320 318 304 294 284 287 286 281 280 280 285 285 292 292 289 257 262 265 297 316 165 135 137 138 136 129 134 133 143 152 151 150 155 163 168 168
230 216 267 286 297 262 294 310 312 301 297 296 302 295 291 286 284 284 276 277 287 287 284 267 215 305 233 312 158 136 138 139 134 132 134 138 145 151 154 151 146 168 172 179